When you browse on this site, cookies collect data to enhance your experience and personalize the content and advertising you see.
Visit our Privacy Policy to learn more. By continuing to use the site, you agree to this use of cookies and data.
  • In Spain
  • List of Countries
  • For 7 days
  • Water Temperature
  • Satellite Maps
  • Weather Map
  • Weather Widgets
  • user-avatar
    Login

    Hourly Weather Velika Gorica

    Today, 21 April, Sunday

    Time Temperature Precipitation Wind Pressure Humidity
    00:00 +10°C° 0 mm 0 mps 758 mmHg 61%
    01:00 +9°C° 0 mm 0 mps 758 mmHg 62%
    02:00 +10°C° 0 mm 1 mps 758 mmHg 63%
    03:00 +10°C° 0 mm 1 mps 757 mmHg 65%
    04:00 +9°C° 0 mm 1 mps 757 mmHg 66%
    05:00 +10°C° 0 mm 1 mps 757 mmHg 64%
    06:00 +10°C° 0 mm 0 mps 757 mmHg 63%
    07:00 +12°C° 0 mm 1 mps 757 mmHg 58%
    08:00 +15°C° 0 mm 1 mps 757 mmHg 51%
    09:00 +18°C° 0 mm 1 mps 756 mmHg 45%
    10:00 +21°C° 0 mm 1 mps 756 mmHg 38%
    11:00 +22°C° 0 mm 1 mps 756 mmHg 35%
    12:00 +23°C° 0 mm 1 mps 755 mmHg 32%
    13:00 +24°C° 0 mm 1 mps 755 mmHg 29%
    14:00 +24°C° 0 mm 1 mps 754 mmHg 30%
    15:00 +24°C° 0 mm 1 mps 754 mmHg 31%
    16:00 +23°C° 0 mm 1 mps 754 mmHg 31%
    17:00 +21°C° 0 mm 1 mps 753 mmHg 37%
    18:00 +19°C° 0 mm 1 mps 753 mmHg 43%
    19:00 +16°C° 0 mm 1 mps 753 mmHg 49%
    20:00 +14°C° 0 mm 0 mps 753 mmHg 51%
    21:00 +13°C° 0 mm 0 mps 753 mmHg 53%
    22:00 +12°C° 0 mm 0 mps 753 mmHg 55%
    23:00 +13°C° 0 mm 1 mps 753 mmHg 58%

    Tomorrow, 22 April, Monday

    Time Temperature Precipitation Wind Pressure Humidity
    00:00 +12°C° 0 mm 1 mps 753 mmHg 61%
    01:00 +11°C° 0 mm 1 mps 753 mmHg 63%
    02:00 +11°C° 0 mm 1 mps 752 mmHg 66%
    03:00 +10°C° 0 mm 1 mps 752 mmHg 68%
    04:00 +10°C° 0 mm 1 mps 752 mmHg 70%
    05:00 +11°C° 0 mm 1 mps 751 mmHg 68%
    06:00 +12°C° 0 mm 1 mps 751 mmHg 66%
    07:00 +13°C° 0 mm 1 mps 751 mmHg 64%
    08:00 +15°C° 0 mm 1 mps 750 mmHg 57%
    09:00 +17°C° 0 mm 2 mps 750 mmHg 51%
    10:00 +20°C° 0 mm 2 mps 750 mmHg 44%
    11:00 +21°C° 0 mm 2 mps 749 mmHg 40%
    12:00 +23°C° 0 mm 2 mps 749 mmHg 37%
    13:00 +24°C° 0 mm 2 mps 748 mmHg 33%
    14:00 +24°C° 0 mm 2 mps 748 mmHg 34%
    15:00 +24°C° 0 mm 2 mps 747 mmHg 35%
    16:00 +24°C° 0 mm 2 mps 747 mmHg 36%
    17:00 +22°C° 0 mm 1 mps 746 mmHg 44%
    18:00 +20°C° 0 mm 1 mps 746 mmHg 51%
    19:00 +18°C° 0 mm 1 mps 746 mmHg 59%
    20:00 +18°C° 0 mm 1 mps 746 mmHg 61%
    21:00 +16°C° 0 mm 1 mps 746 mmHg 63%
    22:00 +16°C° 0 mm 1 mps 747 mmHg 66%
    23:00 +15°C° 0 mm 1 mps 746 mmHg 68%

    Day after tomorrow, 23 April, Tuesday

    Time Temperature Precipitation Wind Pressure Humidity
    00:00 +14°C° 0 mm 0 mps 746 mmHg 71%
    01:00 +13°C° 0 mm 0 mps 746 mmHg 73%
    02:00 +12°C° 1.2 mm 0 mps 746 mmHg 79%
    03:00 +13°C° 1.2 mm 1 mps 745 mmHg 84%
    04:00 +13°C° 1.2 mm 1 mps 745 mmHg 90%
    05:00 +13°C° 0.9 mm 1 mps 745 mmHg 90%
    06:00 +13°C° 0.9 mm 1 mps 745 mmHg 91%
    07:00 +13°C° 0.9 mm 1 mps 745 mmHg 92%
    08:00 +14°C° 0 mm 2 mps 745 mmHg 85%
    09:00 +16°C° 0 mm 2 mps 745 mmHg 79%
    10:00 +17°C° 0 mm 2 mps 745 mmHg 73%
    11:00 +19°C° 0.1 mm 1 mps 745 mmHg 71%
    12:00 +20°C° 0.1 mm 1 mps 745 mmHg 68%
    13:00 +20°C° 0.1 mm 1 mps 745 mmHg 66%
    14:00 +21°C° 0.5 mm 1 mps 745 mmHg 68%
    15:00 +21°C° 0.5 mm 1 mps 744 mmHg 69%
    16:00 +21°C° 0.5 mm 1 mps 744 mmHg 71%
    17:00 +20°C° 1.1 mm 1 mps 744 mmHg 75%
    18:00 +19°C° 1.1 mm 1 mps 744 mmHg 80%
    19:00 +16°C° 1.1 mm 1 mps 745 mmHg 84%
    20:00 +16°C° 0.4 mm 1 mps 745 mmHg 87%
    21:00 +15°C° 0.4 mm 1 mps 746 mmHg 89%
    22:00 +15°C° 0.4 mm 1 mps 746 mmHg 91%
    23:00 +14°C° 0.1 mm 1 mps 747 mmHg 92%

    24 April, Wednesday

    Time Temperature Precipitation Wind Pressure Humidity
    00:00 +14°C° 0.1 mm 1 mps 747 mmHg 93%
    01:00 +13°C° 0.1 mm 1 mps 747 mmHg 94%
    02:00 +13°C° 0 mm 1 mps 748 mmHg 94%
    03:00 +13°C° 0 mm 1 mps 748 mmHg 94%
    04:00 +13°C° 0 mm 1 mps 748 mmHg 94%
    05:00 +13°C° 0 mm 2 mps 749 mmHg 92%
    06:00 +14°C° 0 mm 2 mps 749 mmHg 90%
    07:00 +15°C° 0 mm 2 mps 749 mmHg 88%
    08:00 +17°C° 0.1 mm 3 mps 750 mmHg 79%
    09:00 +19°C° 0.1 mm 3 mps 750 mmHg 70%
    10:00 +21°C° 0.1 mm 4 mps 751 mmHg 62%
    11:00 +22°C° 0.8 mm 4 mps 751 mmHg 62%
    12:00 +22°C° 0.8 mm 4 mps 751 mmHg 63%
    13:00 +22°C° 0.8 mm 4 mps 751 mmHg 63%
    14:00 +22°C° 0.3 mm 4 mps 751 mmHg 61%
    15:00 +24°C° 0.3 mm 3 mps 751 mmHg 60%
    16:00 +24°C° 0.3 mm 3 mps 751 mmHg 58%
    17:00 +21°C° 0 mm 3 mps 751 mmHg 63%
    18:00 +20°C° 0 mm 2 mps 751 mmHg 68%
    19:00 +18°C° 0 mm 2 mps 751 mmHg 73%
    20:00 +17°C° 0 mm 2 mps 751 mmHg 76%
    21:00 +16°C° 0 mm 1 mps 752 mmHg 79%
    22:00 +15°C° 0 mm 1 mps 752 mmHg 82%
    23:00 +15°C° 0 mm 1 mps 752 mmHg 85%

    25 April, Thursday

    Time Temperature Precipitation Wind Pressure Humidity
    00:00 +14°C° 0 mm 1 mps 752 mmHg 87%
    01:00 +14°C° 0 mm 1 mps 752 mmHg 89%
    02:00 +13°C° 0 mm 1 mps 752 mmHg 90%
    03:00 +13°C° 0 mm 1 mps 752 mmHg 90%
    04:00 +13°C° 0 mm 1 mps 752 mmHg 91%
    05:00 +14°C° 0 mm 1 mps 752 mmHg 86%
    06:00 +15°C° 0 mm 1 mps 752 mmHg 82%
    07:00 +16°C° 0 mm 1 mps 752 mmHg 78%
    08:00 +19°C° 0 mm 1 mps 752 mmHg 71%
    09:00 +21°C° 0 mm 1 mps 752 mmHg 63%
    10:00 +23°C° 0 mm 1 mps 753 mmHg 56%
    11:00 +24°C° 0 mm 1 mps 752 mmHg 53%
    12:00 +25°C° 0 mm 2 mps 752 mmHg 50%
    13:00 +27°C° 0 mm 2 mps 752 mmHg 47%
    14:00 +27°C° 0 mm 2 mps 752 mmHg 47%
    15:00 +27°C° 0 mm 2 mps 751 mmHg 48%
    16:00 +27°C° 0 mm 2 mps 751 mmHg 49%
    17:00 +25°C° 0 mm 2 mps 751 mmHg 57%
    18:00 +23°C° 0 mm 1 mps 751 mmHg 64%
    19:00 +21°C° 0 mm 1 mps 751 mmHg 71%
    20:00 +20°C° 0 mm 1 mps 751 mmHg 74%
    21:00 +19°C° 0 mm 1 mps 751 mmHg 76%
    22:00 +18°C° 0 mm 1 mps 751 mmHg 79%
    23:00 +16°C° 0 mm 1 mps 751 mmHg 80%

    26 April, Friday

    Time Temperature Precipitation Wind Pressure Humidity
    00:00 +16°C° 0 mm 1 mps 751 mmHg 82%
    01:00 +15°C° 0 mm 1 mps 751 mmHg 83%
    02:00 +15°C° 0 mm 1 mps 750 mmHg 85%
    03:00 +14°C° 0 mm 1 mps 750 mmHg 86%
    04:00 +14°C° 0 mm 1 mps 750 mmHg 87%
    05:00 +15°C° 0 mm 1 mps 750 mmHg 85%
    06:00 +15°C° 0 mm 1 mps 750 mmHg 82%
    07:00 +16°C° 0 mm 2 mps 750 mmHg 79%
    08:00 +18°C° 0 mm 2 mps 750 mmHg 72%
    09:00 +21°C° 0 mm 3 mps 750 mmHg 65%
    10:00 +23°C° 0 mm 4 mps 750 mmHg 58%
    11:00 +23°C° 0.1 mm 4 mps 749 mmHg 53%
    12:00 +25°C° 0.1 mm 5 mps 749 mmHg 49%
    13:00 +26°C° 0.1 mm 5 mps 749 mmHg 44%
    14:00 +25°C° 0 mm 5 mps 749 mmHg 43%
    15:00 +25°C° 0 mm 5 mps 749 mmHg 42%
    16:00 +23°C° 0 mm 4 mps 748 mmHg 40%
    17:00 +21°C° 0 mm 4 mps 749 mmHg 47%
    18:00 +19°C° 0 mm 3 mps 749 mmHg 55%
    19:00 +17°C° 0 mm 2 mps 749 mmHg 62%
    20:00 +16°C° 0 mm 2 mps 750 mmHg 65%
    21:00 +15°C° 0 mm 1 mps 750 mmHg 69%
    22:00 +14°C° 0 mm 1 mps 751 mmHg 73%
    23:00 +14°C° 0.5 mm 1 mps 751 mmHg 76%
    Show more